GW2742 Weather Reports


time (UTC)temp
C
wind
direction
speed
KPH
gust
KPH
rain 1hr
cm
rain 24hr
cm
rain mn
cm
humidity
%
barometer
mb
20260510025026 12 63 4.8 12.9 0.00 0.15 0.13 62 1019.4
20260510024547 12 30 4.8 12.9 0.00 0.15 0.13 62 1019.4
20260510024026 13 49 6.4 14.5 0.00 0.15 0.13 61 1019.3
20260510023523 13 35 8.0 14.5 0.00 0.15 0.13 61 1019.2
20260510023037 13 54 6.4 14.5 0.00 0.15 0.13 61 1019.2
20260510022526 13 72 6.4 14.5 0.00 0.15 0.13 61 1019.0
20260510022023 13 35 6.4 20.9 0.00 0.15 0.13 61 1018.9
20260510021537 13 31 8.0 20.9 0.00 0.15 0.13 60 1019.0
20260510021022 13 27 9.7 19.3 0.00 0.15 0.13 59 1018.9
20260510020522 14 33 9.7 19.3 0.00 0.15 0.13 58 1018.8
20260510020049 15 37 8.0 16.1 0.00 0.15 0.13 57 1018.7
20260510015523 15 52 9.7 16.1 0.00 0.15 0.13 57 1018.6
20260510015023 15 11 8.0 14.5 0.00 0.15 0.13 56 1018.5
20260510014538 15 46 6.4 19.3 0.00 0.15 0.13 54 1018.5
20260510014023 16 25 3.2 19.3 0.00 0.15 0.13 53 1018.5
20260510013523 16 91 11.3 17.7 0.00 0.15 0.13 52 1018.5
20260510013046 16 32 9.7 17.7 0.00 0.15 0.13 49 1018.4
20260510012523 17 15 6.4 19.3 0.00 0.15 0.13 42 1018.2
20260510012023 17 328 8.0 19.3 0.00 0.15 0.13 40 1018.0
20260510011539 17 15 9.7 19.3 0.00 0.15 0.13 41 1018.2
20260510011022 17 360 4.8 19.3 0.00 0.15 0.13 44 1018.2
20260510010522 17 11 4.8 19.3 0.00 0.15 0.13 48 1018.0
20260510010055 17 63 9.7 22.5 0.00 0.15 0.13 47 1018.0
20260510005527 17 1 8.0 22.5 0.00 0.15 0.13 42 1018.1
20260510005022 17 40 8.0 19.3 0.00 0.15 0.13 44 1018.0
20260510004536 17 22 11.3 20.9 0.00 0.15 0.13 44 1017.8
20260510004027 17 340 9.7 22.5 0.00 0.15 0.13 41 1017.9
20260510003525 17 336 11.3 22.5 0.00 0.15 0.13 41 1017.9
20260510003038 17 307 9.7 25.7 0.00 0.15 0.13 41 1017.8
20260510002523 17 341 12.9 25.7 0.00 0.15 0.13 42 1017.9
20260510002023 17 359 11.3 25.7 0.00 0.15 0.13 41 1017.7
20260510001538 17 348 9.7 24.1 0.00 0.15 0.13 44 1017.8
20260510001025 16 348 9.7 24.1 0.00 0.15 0.13 44 1017.7
20260510000528 17 352 11.3 20.9 0.00 0.15 0.13 43 1017.7
20260510000041 16 336 11.3 20.9 0.00 0.15 0.13 44 1017.7
20260509235524 16 335 11.3 32.2 0.00 0.15 0.13 45 1017.7
20260509235023 16 324 14.5 32.2 0.00 0.15 0.13 44 1017.6
20260509234559 16 302 8.0 30.6 0.00 0.15 0.13 45 1017.6
20260509234027 16 12 9.7 30.6 0.00 0.15 0.13 44 1017.6
20260509233523 16 350 11.3 29.0 0.00 0.15 0.13 45 1017.4
20260509233040 16 37 12.9 29.0 0.00 0.15 0.13 44 1017.6
20260509232526 17 334 9.7 27.4 0.00 0.15 0.13 46 1017.6
20260509232023 17 360 12.9 27.4 0.00 0.15 0.13 44 1017.5
20260509231537 17 353 9.7 27.4 0.00 0.15 0.13 43 1017.6
20260509231023 17 319 11.3 25.7 0.00 0.15 0.13 44 1017.6
20260509230528 17 3 12.9 25.7 0.00 0.15 0.13 43 1017.5
20260509230045 17 340 9.7 27.4 0.00 0.15 0.13 44 1017.6
20260509225523 17 354 11.3 27.4 0.00 0.15 0.13 45 1017.5
20260509225026 17 25 8.0 22.5 0.00 0.15 0.13 48 1017.6
20260509224536 17 10 8.0 20.9 0.00 0.15 0.13 46 1017.6
20260509224023 17 42 8.0 25.7 0.00 0.15 0.13 47 1017.5
20260509223527 17 27 9.7 29.0 0.00 0.15 0.13 47 1017.2
20260509223036 16 33 12.9 29.0 0.00 0.15 0.13 47 1017.3
20260509222527 16 32 14.5 27.4 0.00 0.15 0.13 46 1017.3
20260509222023 16 72 14.5 27.4 0.00 0.15 0.13 46 1017.2
20260509221600 16 84 16.1 29.0 0.00 0.15 0.13 45 1017.1
20260509221024 16 29 16.1 29.0 0.00 0.15 0.13 47 1017.1
20260509220523 16 30 12.9 29.0 0.00 0.15 0.13 46 1017.2
20260509220037 17 26 12.9 25.7 0.00 0.15 0.13 43 1017.2
20260509215524 17 1 11.3 24.1 0.00 0.15 0.13 43 1017.3
20260509215023 17 51 12.9 24.1 0.00 0.15 0.13 42 1017.1
20260509214539 17 35 11.3 24.1 0.00 0.15 0.13 41 1017.1
20260509214022 17 11 11.3 24.1 0.00 0.15 0.13 40 1017.1
20260509213526 17 355 8.0 24.1 0.00 0.15 0.13 42 1017.2
20260509213040 16 20 11.3 22.5 0.00 0.15 0.13 41 1017.2
20260509212528 16 1 12.9 25.7 0.00 0.15 0.13 45 1017.2
20260509212023 16 16 12.9 27.4 0.00 0.15 0.13 44 1017.1
20260509211537 16 66 14.5 27.4 0.00 0.15 0.13 47 1017.1
20260509211023 16 44 11.3 30.6 0.00 0.15 0.13 47 1017.2
20260509210523 16 31 16.1 30.6 0.00 0.15 0.13 47 1017.4
20260509210037 16 25 19.3 30.6 0.00 0.15 0.13 46 1017.3
20260509205522 18 28 11.3 24.1 0.00 0.15 0.13 43 1017.3
20260509205022 18 356 9.7 24.1 0.00 0.15 0.13 35 1017.3
20260509204536 18 343 9.7 27.4 0.00 0.15 0.13 37 1017.2
20260509204023 18 342 12.9 27.4 0.00 0.15 0.13 35 1017.1
20260509203525 18 278 8.0 19.3 0.00 0.15 0.13 34 1017.1
20260509203041 18 342 6.4 24.1 0.00 0.15 0.13 39 1017.0
20260509202525 18 289 9.7 24.1 0.00 0.15 0.13 38 1017.1
20260509202023 18 47 11.3 19.3 0.00 0.15 0.13 35 1017.0
20260509201541 18 38 9.7 20.9 0.00 0.15 0.13 35 1017.0
20260509201027 18 318 6.4 20.9 0.00 0.15 0.13 36 1017.0
20260509200525 18 347 11.3 22.5 0.00 0.15 0.13 35 1017.0
20260509200042 18 319 9.7 22.5 0.00 0.15 0.13 35 1017.0
20260509195523 18 321 11.3 27.4 0.00 0.15 0.13 38 1017.0
20260509195026 17 6 12.9 27.4 0.00 0.15 0.13 35 1016.9
20260509194543 17 359 11.3 25.7 0.00 0.15 0.13 38 1016.8
20260509194023 17 26 14.5 25.7 0.00 0.15 0.13 40 1016.8
20260509193526 17 334 12.9 25.7 0.00 0.15 0.13 36 1016.6
20260509193044 18 24 12.9 25.7 0.00 0.15 0.13 36 1016.5
20260509192524 18 359 12.9 25.7 0.00 0.15 0.13 35 1016.4
20260509192036 18 8 12.9 24.1 0.00 0.15 0.13 33 1016.5
20260509191543 18 311 6.4 24.1 0.00 0.15 0.13 34 1016.4
20260509191028 18 331 9.7 25.7 0.00 0.15 0.13 32 1016.4
20260509190530 17 293 11.3 25.7 0.00 0.15 0.13 31 1016.4
20260509190047 17 305 8.0 24.1 0.00 0.15 0.13 35 1016.4
20260509185525 17 280 11.3 25.7 0.00 0.15 0.13 36 1016.6
20260509185023 17 360 11.3 27.4 0.00 0.15 0.13 37 1016.7
20260509184540 17 357 11.3 27.4 0.00 0.15 0.13 36 1016.6
20260509184022 17 46 9.7 19.3 0.00 0.15 0.13 35 1016.6
20260509183524 17 328 8.0 17.7 0.00 0.15 0.13 35 1016.7
20260509183041 17 359 8.0 27.4 0.00 0.15 0.13 34 1016.7
20260509182523 17 345 9.7 27.4 0.00 0.15 0.13 38 1016.7
20260509182022 17 359 8.0 20.9 0.00 0.15 0.13 37 1016.7
20260509181536 17 321 6.4 20.9 0.00 0.15 0.13 38 1016.8
20260509181026 17 2 8.0 19.3 0.00 0.15 0.13 43 1016.7
20260509180524 16 358 6.4 19.3 0.00 0.15 0.13 42 1016.8
20260509180037 16 328 9.7 20.9 0.00 0.15 0.13 46 1016.8
20260509175522 16 324 8.0 20.9 0.00 0.15 0.13 49 1017.0
20260509175027 15 15 8.0 17.7 0.00 0.15 0.13 49 1017.0
20260509174537 15 338 6.4 17.7 0.00 0.15 0.13 48 1017.1
20260509174023 15 332 6.4 17.7 0.00 0.15 0.13 48 1017.1
20260509173523 15 337 9.7 16.1 0.00 0.15 0.13 49 1017.1
20260509173051 15 318 6.4 16.1 0.00 0.15 0.13 47 1017.0
20260509172523 15 323 3.2 17.7 0.00 0.15 0.13 48 1017.1
20260509172026 15 322 8.0 17.7 0.00 0.15 0.13 48 1017.0
20260509171546 15 349 9.7 17.7 0.00 0.15 0.13 48 1017.1
20260509171023 15 338 8.0 20.9 0.00 0.15 0.13 47 1017.1
20260509170523 15 345 9.7 22.5 0.00 0.15 0.13 47 1017.0
20260509170042 15 1 11.3 22.5 0.00 0.15 0.13 43 1017.0
20260509165526 15 328 9.7 19.3 0.00 0.15 0.13 44 1017.0
20260509165023 15 359 11.3 22.5 0.00 0.15 0.13 44 1017.0
20260509164546 15 328 11.3 22.5 0.00 0.15 0.13 45 1016.9
20260509164028 16 348 9.7 20.9 0.00 0.15 0.13 46 1016.7
20260509163524 16 339 8.0 24.1 0.00 0.15 0.13 50 1016.7
20260509163049 15 1 12.9 24.1 0.00 0.15 0.13 50 1016.9
20260509162524 15 297 9.7 22.5 0.00 0.15 0.13 50 1016.6
20260509162024 15 34 9.7 22.5 0.00 0.15 0.13 48 1016.6
20260509161537 15 326 8.0 22.5 0.00 0.15 0.13 54 1016.5
20260509161023 15 342 11.3 20.9 0.00 0.15 0.13 55 1016.4
20260509160523 14 307 4.8 12.9 0.00 0.15 0.13 60 1016.3
20260509160037 13 347 3.2 11.3 0.00 0.15 0.13 65 1016.4
20260509155522 12 334 1.6 6.4 0.00 0.15 0.13 68 1016.4
20260509155026 12 342 1.6 4.8 0.00 0.15 0.13 72 1016.4
20260509154537 12 0 0.0 8.0 0.00 0.15 0.13 71 1016.4
20260509154026 12 336 1.6 8.0 0.00 0.15 0.13 72 1016.6
20260509153528 12 347 3.2 6.4 0.00 0.15 0.13 71 1016.8
20260509153038 12 342 0.0 6.4 0.00 0.15 0.13 70 1016.9
20260509152526 12 211 1.6 6.4 0.00 0.15 0.13 69 1017.0
20260509152026 12 247 1.6 4.8 0.00 0.15 0.13 70 1017.0
20260509151537 12 286 1.6 14.5 0.00 0.15 0.13 70 1016.9
20260509151026 12 329 3.2 14.5 0.00 0.15 0.13 67 1016.7
20260509150528 13 350 6.4 19.3 0.00 0.15 0.13 69 1016.4
20260509150037 13 311 8.0 19.3 0.00 0.15 0.13 67 1016.4
20260509145529 12 343 9.7 19.3 0.00 0.15 0.13 67 1016.3
20260509145027 12 350 8.0 17.7 0.00 0.15 0.13 68 1016.2
20260509144544 12 311 6.4 19.3 0.00 0.15 0.13 69 1016.1
20260509144026 12 333 8.0 19.3 0.00 0.15 0.13 69 1016.1
20260509143526 13 341 8.0 19.3 0.00 0.15 0.13 69 1016.0
20260509143037 13 337 6.4 19.3 0.00 0.15 0.13 69 1015.9
20260509142525 12 281 8.0 22.5 0.00 0.15 0.13 72 1015.9
20260509142027 12 342 6.4 22.5 0.00 0.15 0.13 72 1016.0
20260509141544 12 304 8.0 22.5 0.00 0.15 0.13 71 1015.8
20260509141027 12 327 8.0 17.7 0.00 0.15 0.13 72 1015.9
20260509140526 11 323 8.0 22.5 0.00 0.15 0.13 72 1015.8
20260509140042 11 298 8.0 22.5 0.00 0.15 0.13 73 1015.8
20260509135526 11 335 8.0 22.5 0.00 0.15 0.13 73 1015.8
20260509135027 11 359 8.0 16.1 0.00 0.15 0.13 75 1015.8
20260509134550 11 344 8.0 14.5 0.00 0.15 0.13 75 1015.7
20260509134031 11 266 6.4 14.5 0.00 0.15 0.13 76 1015.7
20260509133526 10 326 4.8 9.7 0.00 0.15 0.13 79 1015.5
20260509133038 10 334 3.2 9.7 0.00 0.15 0.13 81 1015.5
20260509132526 10 305 1.6 6.4 0.00 0.15 0.13 86 1015.5
20260509132026 10 0 0.0 4.8 0.00 0.15 0.13 88 1015.6
20260509131555 9 0 0.0 3.2 0.00 0.15 0.13 88 1015.5
20260509131026 9 0 0.0 3.2 0.00 0.15 0.13 88 1015.5
20260509130531 9 246 0.0 3.2 0.00 0.15 0.13 89 1015.4
20260509130048 9 0 0.0 3.2 0.00 0.15 0.13 88 1015.4
20260509125527 9 246 0.0 3.2 0.00 0.18 0.13 88 1015.2
20260509125026 9 0 0.0 3.2 0.00 0.18 0.13 88 1015.1
20260509124543 9 0 0.0 3.2 0.00 0.18 0.13 88 1015.3
20260509124026 9 0 0.0 4.8 0.00 0.18 0.13 88 1015.2
20260509123526 9 0 0.0 4.8 0.00 0.18 0.13 88 1015.2
20260509123048 9 259 1.6 4.8 0.00 0.18 0.13 88 1015.1
20260509122526 8 244 1.6 4.8 0.00 0.18 0.13 89 1015.0
20260509122024 8 212 1.6 4.8 0.00 0.18 0.13 89 1015.0
20260509121538 8 233 1.6 4.8 0.00 0.18 0.13 89 1014.9
20260509121026 8 0 0.0 3.2 0.00 0.18 0.13 89 1014.9
20260509120528 8 0 0.0 4.8 0.00 0.18 0.13 88 1014.6
20260509120038 9 221 1.6 4.8 0.03 0.18 0.13 88 1014.6
20260509115526 9 221 1.6 4.8 0.03 0.18 0.13 88 1014.6
20260509115026 9 217 0.0 3.2 0.03 0.18 0.13 87 1014.5
20260509114537 9 0 0.0 1.6 0.03 0.18 0.13 87 1014.4
20260509114026 9 0 0.0 3.2 0.03 0.18 0.13 87 1014.4
20260509113531 9 0 0.0 3.2 0.05 0.18 0.13 87 1014.5
20260509113046 9 179 0.0 3.2 0.05 0.18 0.13 86 1014.4
20260509112528 10 179 1.6 3.2 0.08 0.18 0.13 86 1014.3
20260509112027 10 179 1.6 3.2 0.08 0.18 0.13 85 1014.3
20260509111539 10 179 1.6 4.8 0.10 0.18 0.13 84 1014.4
20260509111026 10 0 1.6 4.8 0.13 0.18 0.13 84 1014.5
20260509110528 10 186 1.6 6.4 0.13 0.18 0.13 84 1014.3
20260509110042 10 91 0.0 6.4 0.10 0.15 0.10 84 1014.4
20260509105525 10 103 4.8 6.4 0.10 0.15 0.10 84 1014.4
20260509105029 10 99 3.2 6.4 0.10 0.15 0.10 85 1014.5
20260509104548 10 0 0.0 6.4 0.10 0.15 0.10 83 1014.8
20260509104025 10 0 0.0 6.4 0.10 0.15 0.10 82 1014.8
20260509103526 10 88 3.2 6.4 0.08 0.13 0.08 81 1014.6
20260509103037 11 46 1.6 4.8 0.08 0.13 0.08 77 1014.8
20260509102530 11 0 0.0 6.4 0.05 0.10 0.05 78 1014.8
20260509102027 11 0 1.6 11.3 0.05 0.10 0.05 76 1014.5
20260509101537 11 98 3.2 11.3 0.03 0.08 0.03 71 1014.2
20260509101026 12 338 3.2 11.3 0.00 0.05 0.00 75 1014.6
20260509100526 12 296 4.8 9.7 0.00 0.05 0.00 70 1014.4
20260509100040 12 309 3.2 9.7 0.00 0.05 0.00 68 1014.2
20260509095527 12 263 4.8 9.7 0.00 0.05 0.00 69 1013.8
20260509095026 12 277 3.2 6.4 0.00 0.05 0.00 70 1013.5
20260509094538 12 0 1.6 8.0 0.00 0.05 0.00 73 1013.3
20260509094026 11 240 3.2 8.0 0.00 0.05 0.00 75 1013.1
20260509093526 11 0 1.6 6.4 0.00 0.05 0.00 78 1012.9
20260509093039 11 268 0.0 1.6 0.00 0.05 0.00 81 1012.8
20260509092526 11 0 0.0 3.2 0.00 0.05 0.00 81 1012.7
20260509092024 11 0 0.0 3.2 0.00 0.05 0.00 81 1012.6
20260509091537 11 131 0.0 3.2 0.00 0.05 0.00 81 1012.6
20260509091026 11 131 0.0 0.0 0.00 0.05 0.00 81 1012.7
20260509090526 11 0 0.0 1.6 0.00 0.05 0.00 82 1012.8
20260509090049 11 0 0.0 3.2 0.00 0.05 0.00 81 1012.7
20260509085526 11 131 0.0 4.8 0.00 0.05 0.00 80 1012.8
20260509085028 11 131 1.6 4.8 0.00 0.05 0.00 80 1012.7
20260509084541 11 246 1.6 3.2 0.00 0.05 0.00 80 1012.6
20260509084026 11 0 0.0 1.6 0.00 0.05 0.00 79 1012.7
20260509083526 11 0 0.0 4.8 0.00 0.05 0.00 79 1012.5
20260509083044 11 0 0.0 4.8 0.00 0.05 0.00 79 1012.4
20260509082525 11 0 1.6 8.0 0.00 0.05 0.00 78 1012.4
20260509082026 11 259 3.2 8.0 0.00 0.05 0.00 78 1012.5
20260509081543 11 225 3.2 8.0 0.00 0.05 0.00 78 1012.4
20260509081028 11 188 1.6 3.2 0.00 0.05 0.00 78 1012.5
20260509080526 11 184 0.0 4.8 0.00 0.05 0.00 78 1012.5
20260509080037 11 0 0.0 4.8 0.00 0.05 0.00 78 1012.3
20260509075526 11 185 3.2 6.4 0.00 0.05 0.00 76 1012.3
20260509075026 12 184 3.2 6.4 0.00 0.05 0.00 75 1012.3
20260509074536 12 160 1.6 4.8 0.00 0.05 0.00 75 1012.2
20260509074030 12 0 0.0 3.2 0.00 0.05 0.00 75 1012.4
20260509073526 12 278 0.0 3.2 0.00 0.05 0.00 76 1012.4
20260509073039 12 0 0.0 4.8 0.00 0.05 0.00 76 1012.3
20260509072537 12 0 0.0 4.8 0.00 0.05 0.00 75 1012.4
20260509072025 12 278 0.0 4.8 0.00 0.05 0.00 74 1011.7
20260509071540 12 0 0.0 4.8 0.00 0.05 0.00 72 1011.5
20260509071026 12 0 1.6 4.8 0.00 0.05 0.00 72 1011.5
20260509070527 13 0 0.0 3.2 0.00 0.05 0.00 71 1011.5
20260509070037 13 305 1.6 3.2 0.00 0.05 0.00 71 1011.6
20260509065526 13 306 0.0 1.6 0.00 0.08 0.00 70 1011.8
20260509065028 13 306 0.0 4.8 0.00 0.08 0.00 70 1011.8
20260509064537 13 0 0.0 4.8 0.00 0.08 0.00 69 1011.8
20260509064027 13 305 1.6 4.8 0.00 0.08 0.00 68 1011.8
20260509063526 13 58 1.6 4.8 0.00 0.08 0.00 67 1011.6
20260509063036 13 168 0.0 3.2 0.00 0.08 0.00 67 1011.5
20260509062529 13 0 0.0 3.2 0.00 0.08 0.00 67 1011.3
20260509062027 13 0 0.0 3.2 0.00 0.08 0.00 67 1011.4
20260509061542 13 0 0.0 4.8 0.00 0.08 0.00 66 1011.4
20260509061026 14 0 0.0 6.4 0.00 0.08 0.00 65 1011.4
20260509060529 14 67 0.0 6.4 0.00 0.08 0.00 65 1011.3
20260509060038 14 62 3.2 6.4 0.00 0.08 0.00 64 1011.4
20260509055527 15 269 1.6 6.4 0.00 0.08 0.08 62 1011.4
20260509055025 15 263 0.0 9.7 0.00 0.08 0.08 61 1011.3
20260509054548 15 245 3.2 9.7 0.00 0.08 0.08 59 1011.4
20260509054027 16 276 4.8 9.7 0.00 0.08 0.08 57 1011.3
20260509053530 16 226 3.2 8.0 0.00 0.08 0.08 50 1011.3
20260509053129 16 326 1.6 8.0 0.00 0.08 0.08 50 1011.4
20260509052526 17 348 3.2 16.1 0.00 0.08 0.08 45 1011.3
20260509052026 16 317 4.8 19.3 0.00 0.08 0.08 46 1011.3
20260509051545 16 27 9.7 19.3 0.00 0.08 0.08 48 1011.4
20260509051024 14 325 1.6 8.0 0.00 0.08 0.08 65 1011.5
20260509050526 14 277 3.2 8.0 0.00 0.08 0.08 64 1011.4
20260509050047 15 205 3.2 12.9 0.00 0.08 0.08 64 1011.2
20260509045526 15 236 4.8 12.9 0.00 0.08 0.08 62 1011.1
20260509045026 15 165 6.4 12.9 0.00 0.08 0.08 63 1011.0
20260509044539 15 163 6.4 12.9 0.00 0.08 0.08 62 1011.0
20260509044028 15 182 4.8 12.9 0.00 0.08 0.08 61 1011.1
20260509043526 15 175 3.2 9.7 0.00 0.08 0.08 62 1011.0
20260509043037 15 174 4.8 9.7 0.00 0.08 0.08 60 1011.0
20260509042529 15 203 3.2 11.3 0.00 0.08 0.08 59 1011.1
20260509042027 15 277 1.6 14.5 0.00 0.08 0.08 58 1011.1
20260509041536 15 159 6.4 14.5 0.00 0.08 0.08 57 1011.1
20260509041027 16 214 4.8 11.3 0.00 0.08 0.08 57 1011.1
20260509040526 16 0 0.0 11.3 0.00 0.08 0.08 55 1011.1
20260509040037 16 268 1.6 11.3 0.00 0.08 0.08 55 1011.1
20260509035527 16 257 6.4 11.3 0.00 0.10 0.08 55 1011.0
20260509035029 15 221 3.2 8.0 0.00 0.10 0.08 58 1010.9
20260509034536 15 0 1.6 11.3 0.00 0.10 0.08 59 1010.9
20260509034027 15 190 3.2 11.3 0.00 0.10 0.08 60 1011.0
20260509033526 15 263 4.8 11.3 0.00 0.10 0.08 60 1011.1
20260509033039 15 219 4.8 11.3 0.00 0.10 0.08 62 1011.2
20260509032527 15 217 4.8 11.3 0.00 0.10 0.08 60 1011.2
20260509032027 15 226 3.2 11.3 0.00 0.10 0.08 59 1011.1
20260509031538 15 218 4.8 11.3 0.00 0.10 0.08 60 1010.7
20260509031026 15 185 3.2 6.4 0.00 0.10 0.08 59 1010.6
20260509030525 15 194 3.2 9.7 0.00 0.10 0.08 59 1010.4
20260509030039 15 190 4.8 9.7 0.03 0.10 0.08 57 1010.3
20260509025526 15 200 3.2 6.4 0.03 0.10 0.08 57 1010.1